Overview Statistics Trail Chart Weather Telemetry Raw packets
 

This is the latest recevied weather packets stored in our database for station/object EA1IDU-12. If no packets are shown the sender has not sent any weather packets the latest 10 day(s).

<< 25 26 27 28 29 30 31 >>
Time Temp. Humidity Pressure Rain* Wind** Luminosity Snow
1788021608 30.56° C 29% 1027.8 hPa - - - -
1788020708 30.56° C 29% 1027.9 hPa - - - -
1788019808 30.56° C 29% 1028.1 hPa - - - -
1788018908 30.56° C 29% 1028.1 hPa - - - -
1788018007 30.56° C 29% 1028.2 hPa - - - -
1788017107 30.56° C 29% 1028.3 hPa - - - -
1788016207 30.56° C 29% 1028.4 hPa - - - -
1788015307 30° C 30% 1028.5 hPa - - - -
1788014407 30° C 30% 1028.6 hPa - - - -
1788013507 29.44° C 31% 1028.8 hPa - - - -
1788012606 30° C 32% 1028.9 hPa - - - -
1788011706 30° C 33% 1029 hPa - - - -
1788010806 28.89° C 34% 1028.9 hPa - - - -
1788009906 28.33° C 34% 1029.2 hPa - - - -
1788009006 27.78° C 36% 1029.4 hPa - - - -
1788008109 27.78° C 37% 1029.5 hPa - - - -
1788007206 27.22° C 38% 1029.5 hPa - - - -
1788006305 27.22° C 39% 1029.7 hPa - - - -
1788005418 26.67° C 40% 1029.7 hPa - - - -
1788004505 26.11° C 42% 1029.7 hPa - - - -
1788003605 26.11° C 43% 1029.8 hPa - - - -
1788002705 25.56° C 44% 1029.8 hPa - - - -
1788001804 25° C 46% 1029.7 hPa - - - -
1788000904 24.44° C 47% 1030 hPa - - - -
1788000004 23.89° C 50% 1030 hPa - - - -

* Rain since midnight (hover to see other rain measurements)
** Current wind speed in m/s (hover to see current wind gust speed)